BEIDOU M4

Last updated on Tue Apr 02 2019 03:15:24 GMT+0000 (Coordinated Universal Time)

1 38251U 12018B 19091.21106074 -.00000093 00000-0 10000-3 0 9999 2 38251 56.5318 31.7515 0027053 236.2717 36.0275 1.86233612 47237

Satellite not in orbit

BEIDOU M4